OK1VCF-8 Weather Reports


time (UTC)temp
F
wind
direction
speed
knots
gust
knots
rain 1hr
in
rain 24hr
in
rain mn
in
humidity
%
barometer
mb
20260902164847 74 0 0.0 0.0 0.00 0.00 0.00 46 1020.0
20260902164130 74 0 0.0 0.0 0.00 0.00 0.00 46 1020.0
20260902163412 75 0 0.0 0.0 0.00 0.00 0.00 44 1020.0
20260902162653 78 0 0.0 0.0 0.00 0.00 0.00 42 1020.0
20260902161934 84 0 0.0 0.0 0.00 0.00 0.00 36 1020.0
20260902161215 88 0 0.0 0.0 0.00 0.00 0.00 32 1020.0
20260902160457 89 0 0.0 0.0 0.00 0.00 0.00 32 1019.9
20260902154315 86 0 0.0 0.0 0.00 0.00 0.00 34 1020.1
20260902153556 80 0 0.0 0.0 0.00 0.00 0.00 41 1020.2
20260902152553 82 0 0.0 0.0 0.00 0.00 0.00 37 1020.2
20260902151836 86 0 0.0 0.0 0.00 0.00 0.00 34 1020.3
20260902151116 80 0 0.0 0.0 0.00 0.00 0.00 38 1020.4
20260902150359 78 0 0.0 0.0 0.00 0.00 0.00 40 1020.4
20260902145639 78 0 0.0 0.0 0.00 0.00 0.00 40 1020.6
20260902144919 78 0 0.0 0.0 0.00 0.00 0.00 40 1020.5
20260902144201 78 0 0.0 0.0 0.00 0.00 0.00 41 1020.6
20260902143442 78 0 0.0 0.0 0.00 0.00 0.00 40 1020.6
20260902142723 78 0 0.0 0.0 0.00 0.00 0.00 40 1020.6
20260902142003 78 0 0.0 0.0 0.00 0.00 0.00 40 1020.8
20260902141243 80 0 0.0 0.0 0.00 0.00 0.00 40 1020.8
20260902140524 80 0 0.0 0.0 0.00 0.00 0.00 38 1020.7
20260902135806 81 0 0.0 0.0 0.00 0.00 0.00 37 1020.9
20260902135047 83 0 0.0 0.0 0.00 0.00 0.00 35 1020.8
20260902134329 83 0 0.0 0.0 0.00 0.00 0.00 36 1021.0
20260902133325 80 0 0.0 0.0 0.00 0.00 0.00 39 1021.0
20260902132605 82 0 0.0 0.0 0.00 0.00 0.00 38 1021.0
20260902131845 82 0 0.0 0.0 0.00 0.00 0.00 39 1021.3
20260902131124 82 0 0.0 0.0 0.00 0.00 0.00 38 1021.4
20260902130358 83 0 0.0 0.0 0.00 0.00 0.00 38 1021.4
20260902125629 82 0 0.0 0.0 0.00 0.00 0.00 36 1021.4
20260902124851 82 0 0.0 0.0 0.00 0.00 0.00 38 1021.4
20260902124119 80 0 0.0 0.0 0.00 0.00 0.00 37 1021.4
20260902123342 80 0 0.0 0.0 0.00 0.00 0.00 38 1021.4
20260902122607 80 0 0.0 0.0 0.00 0.00 0.00 40 1021.5
20260902120344 79 0 0.0 0.0 0.00 0.00 0.00 41 1021.7
20260902115606 78 0 0.0 0.0 0.00 0.00 0.00 41 1021.8
20260902114825 78 0 0.0 0.0 0.00 0.00 0.00 40 1021.8
20260902113800 77 0 0.0 0.0 0.00 0.00 0.00 42 1022.0
20260902113034 75 0 0.0 0.0 0.00 0.00 0.00 44 1022.0
20260902112313 75 0 0.0 0.0 0.00 0.00 0.00 45 1022.1
20260902111555 76 0 0.0 0.0 0.00 0.00 0.00 44 1022.2
20260902110835 76 0 0.0 0.0 0.00 0.00 0.00 45 1022.3
20260902110118 76 0 0.0 0.0 0.00 0.00 0.00 44 1022.4
20260902105400 76 0 0.0 0.0 0.00 0.00 0.00 46 1022.4
20260902104642 78 0 0.0 0.0 0.00 0.00 0.00 43 1022.4
20260902103924 80 0 0.0 0.0 0.00 0.00 0.00 44 1022.4
20260902103204 78 0 0.0 0.0 0.00 0.00 0.00 46 1022.5
20260902102442 76 0 0.0 0.0 0.00 0.00 0.00 49 1022.7
20260902101719 76 0 0.0 0.0 0.00 0.00 0.00 48 1022.4
20260902100956 76 0 0.0 0.0 0.00 0.00 0.00 49 1022.6
20260902100231 74 0 0.0 0.0 0.00 0.00 0.00 52 1022.8
20260902095505 75 0 0.0 0.0 0.00 0.00 0.00 54 1022.8
20260902093035 74 0 0.0 0.0 0.00 0.00 0.00 53 1023.0
20260902092314 74 0 0.0 0.0 0.00 0.00 0.00 54 1023.0
20260902091555 73 0 0.0 0.0 0.00 0.00 0.00 54 1023.0
20260902090838 72 0 0.0 0.0 0.00 0.00 0.00 56 1022.9
20260902090120 72 0 0.0 0.0 0.00 0.00 0.00 58 1023.0
20260902085359 71 0 0.0 0.0 0.00 0.00 0.00 59 1023.0
20260902084641 70 0 0.0 0.0 0.00 0.00 0.00 62 1022.9
20260902083923 69 0 0.0 0.0 0.00 0.00 0.00 63 1023.0
20260902083205 68 0 0.0 0.0 0.00 0.00 0.00 64 1023.0
20260902082448 68 0 0.0 0.0 0.00 0.00 0.00 64 1022.9
20260902081731 68 0 0.0 0.0 0.00 0.00 0.00 64 1023.0
20260902081012 67 0 0.0 0.0 0.00 0.00 0.00 66 1023.1
20260902080253 66 0 0.0 0.0 0.00 0.00 0.00 66 1023.0
20260902075249 66 0 0.0 0.0 0.00 0.00 0.00 67 1023.0
20260902074532 66 0 0.0 0.0 0.00 0.00 0.00 67 1023.0
20260902073814 66 0 0.0 0.0 0.00 0.00 0.00 68 1023.0
20260902073054 64 0 0.0 0.0 0.00 0.00 0.00 68 1023.1
20260902072335 64 0 0.0 0.0 0.00 0.00 0.00 70 1023.1
20260902071615 64 0 0.0 0.0 0.00 0.00 0.00 70 1023.1
20260902070852 63 0 0.0 0.0 0.00 0.00 0.00 72 1023.2
20260902070129 62 0 0.0 0.0 0.00 0.00 0.00 72 1023.2
20260902065402 62 0 0.0 0.0 0.00 0.00 0.00 73 1023.2
20260902064637 61 0 0.0 0.0 0.00 0.00 0.00 74 1023.1
20260902063912 60 0 0.0 0.0 0.00 0.00 0.00 75 1023.2
20260902063145 60 0 0.0 0.0 0.00 0.00 0.00 76 1023.0
20260902062418 60 0 0.0 0.0 0.00 0.00 0.00 77 1023.2
20260902061653 59 0 0.0 0.0 0.00 0.00 0.00 78 1023.0
20260902060925 58 0 0.0 0.0 0.00 0.00 0.00 80 1022.9
20260902055915 59 0 0.0 0.0 0.00 0.00 0.00 78 1023.0
20260902055154 60 0 0.0 0.0 0.00 0.00 0.00 78 1023.0
20260902054435 60 0 0.0 0.0 0.00 0.00 0.00 78 1023.0
20260902053717 58 0 0.0 0.0 0.00 0.00 0.00 80 1023.1
20260902052957 57 0 0.0 0.0 0.00 0.00 0.00 82 1022.9
20260902052240 56 0 0.0 0.0 0.00 0.00 0.00 82 1022.8
20260902051520 56 0 0.0 0.0 0.00 0.00 0.00 84 1022.8
20260902050804 55 0 0.0 0.0 0.00 0.00 0.00 85 1022.8
20260902050045 56 0 0.0 0.0 0.00 0.00 0.00 85 1022.7
20260902045325 55 0 0.0 0.0 0.00 0.00 0.00 85 1022.5
20260902044608 54 0 0.0 0.0 0.00 0.00 0.00 86 1022.5
20260902043852 54 0 0.0 0.0 0.00 0.00 0.00 86 1022.3
20260902043132 54 0 0.0 0.0 0.00 0.00 0.00 87 1022.3
20260902042412 54 0 0.0 0.0 0.00 0.00 0.00 86 1022.2
20260902041653 54 0 0.0 0.0 0.00 0.00 0.00 88 1022.2
20260902040651 53 0 0.0 0.0 0.00 0.00 0.00 88 1022.2
20260902035933 53 0 0.0 0.0 0.00 0.00 0.00 88 1022.1
20260902035215 53 0 0.0 0.0 0.00 0.00 0.00 88 1022.2
20260902034458 53 0 0.0 0.0 0.00 0.00 0.00 88 1022.2
20260902033741 54 0 0.0 0.0 0.00 0.00 0.00 86 1022.2
20260902033022 54 0 0.0 0.0 0.00 0.00 0.00 86 1022.2
20260902032306 54 0 0.0 0.0 0.00 0.00 0.00 88 1022.4
20260902031549 53 0 0.0 0.0 0.00 0.00 0.00 88 1022.4
20260902030831 53 0 0.0 0.0 0.00 0.00 0.00 88 1022.6
20260902030113 54 0 0.0 0.0 0.00 0.00 0.00 87 1022.4
20260902025354 54 0 0.0 0.0 0.00 0.00 0.00 86 1022.5
20260902024638 54 0 0.0 0.0 0.00 0.00 0.00 86 1022.5
20260902023921 54 0 0.0 0.0 0.00 0.00 0.00 86 1022.5
20260902023203 54 0 0.0 0.0 0.00 0.00 0.00 84 1022.4
20260902022446 56 0 0.0 0.0 0.00 0.00 0.00 84 1022.4
20260902021446 55 0 0.0 0.0 0.00 0.00 0.00 84 1022.6
20260902020727 56 0 0.0 0.0 0.00 0.00 0.00 84 1022.5
20260902020010 56 0 0.0 0.0 0.00 0.00 0.00 82 1022.4
20260902015251 56 0 0.0 0.0 0.00 0.00 0.00 84 1022.4
20260902013110 56 0 0.0 0.0 0.00 0.00 0.00 84 1022.4
20260902012351 55 0 0.0 0.0 0.00 0.00 0.00 85 1022.2
20260902011633 55 0 0.0 0.0 0.00 0.00 0.00 85 1022.2
20260902010914 55 0 0.0 0.0 0.00 0.00 0.00 84 1022.0
20260902010150 55 0 0.0 0.0 0.00 0.00 0.00 84 1022.0
20260902005422 55 0 0.0 0.0 0.00 0.00 0.00 84 1022.2
20260902004653 56 0 0.0 0.0 0.00 0.00 0.00 82 1022.2
20260902003928 57 0 0.0 0.0 0.00 0.00 0.00 81 1022.2
20260902003204 57 0 0.0 0.0 0.00 0.00 0.00 80 1022.2
20260902002149 57 0 0.0 0.0 0.00 0.00 0.00 80 1022.2
20260902001420 57 0 0.0 0.0 0.00 0.00 0.00 80 1022.1
20260902000651 58 0 0.0 0.0 0.00 0.00 0.00 80 1022.3
20260901235921 57 0 0.0 0.0 0.00 0.00 0.00 80 1022.2
20260901235139 57 0 0.0 0.0 0.00 0.00 0.00 80 1022.4
20260901234402 57 0 0.0 0.0 0.00 0.00 0.00 80 1022.2
20260901233626 57 0 0.0 0.0 0.00 0.00 0.00 80 1022.3
20260901232855 58 0 0.0 0.0 0.00 0.00 0.00 79 1022.2
20260901232134 58 0 0.0 0.0 0.00 0.00 0.00 78 1022.2
20260901231417 58 0 0.0 0.0 0.00 0.00 0.00 78 1022.2
20260901230702 58 0 0.0 0.0 0.00 0.00 0.00 78 1022.2
20260901225945 58 0 0.0 0.0 0.00 0.00 0.00 77 1022.2
20260901225229 59 0 0.0 0.0 0.00 0.00 0.00 76 1022.3
20260901224511 59 0 0.0 0.0 0.00 0.00 0.00 76 1022.2
20260901223754 59 0 0.0 0.0 0.00 0.00 0.00 76 1022.2
20260901222754 60 0 0.0 0.0 0.00 0.00 0.00 76 1022.4
20260901222035 60 0 0.0 0.0 0.00 0.00 0.00 74 1022.2
20260901221318 60 0 0.0 0.0 0.00 0.00 0.00 75 1022.4
20260901220601 60 0 0.0 0.0 0.00 0.00 0.00 76 1022.4
20260901215843 60 0 0.0 0.0 0.00 0.00 0.00 75 1022.3
20260901215126 60 0 0.0 0.0 0.00 0.00 0.00 74 1022.3
20260901214409 60 0 0.0 0.0 0.00 0.00 0.00 74 1022.3
20260901213653 60 0 0.0 0.0 0.00 0.00 0.00 74 1022.2
20260901212935 60 0 0.0 0.0 0.00 0.00 0.00 74 1022.2
20260901212218 60 0 0.0 0.0 0.00 0.00 0.00 74 1022.1
20260901211500 60 0 0.0 0.0 0.00 0.00 0.00 74 1022.0
20260901210745 60 0 0.0 0.0 0.00 0.00 0.00 74 1022.0
20260901210027 60 0 0.0 0.0 0.00 0.00 0.00 74 1022.0
20260901205310 60 0 0.0 0.0 0.00 0.00 0.00 74 1022.0
20260901204553 60 0 0.0 0.0 0.00 0.00 0.00 73 1022.0
20260901203553 62 0 0.0 0.0 0.00 0.00 0.00 72 1022.0
20260901202836 62 0 0.0 0.0 0.00 0.00 0.00 72 1022.0
20260901202118 62 0 0.0 0.0 0.00 0.00 0.00 72 1022.1
20260901201401 62 0 0.0 0.0 0.00 0.00 0.00 71 1022.0
20260901200645 62 0 0.0 0.0 0.00 0.00 0.00 70 1022.0
20260901195927 62 0 0.0 0.0 0.00 0.00 0.00 70 1022.0
20260901193747 64 0 0.0 0.0 0.00 0.00 0.00 65 1022.0
20260901193028 64 0 0.0 0.0 0.00 0.00 0.00 66 1021.8
20260901192311 64 0 0.0 0.0 0.00 0.00 0.00 65 1021.8
20260901191554 64 0 0.0 0.0 0.00 0.00 0.00 64 1021.8
20260901190838 64 0 0.0 0.0 0.00 0.00 0.00 64 1021.6
20260901190120 64 0 0.0 0.0 0.00 0.00 0.00 62 1021.6
20260901185402 64 0 0.0 0.0 0.00 0.00 0.00 63 1021.6
20260901184400 65 0 0.0 0.0 0.00 0.00 0.00 62 1021.5
20260901183642 65 0 0.0 0.0 0.00 0.00 0.00 62 1021.4
20260901182924 66 0 0.0 0.0 0.00 0.00 0.00 62 1021.4
20260901182206 66 0 0.0 0.0 0.00 0.00 0.00 60 1021.2
20260901181447 68 0 0.0 0.0 0.00 0.00 0.00 58 1021.2
20260901180730 68 0 0.0 0.0 0.00 0.00 0.00 56 1021.2
20260901180010 68 0 0.0 0.0 0.00 0.00 0.00 56 1021.0
20260901175252 68 0 0.0 0.0 0.00 0.00 0.00 56 1020.9
20260901174535 68 0 0.0 0.0 0.00 0.00 0.00 56 1021.0
20260901173818 68 0 0.0 0.0 0.00 0.00 0.00 56 1020.9
20260901173058 68 0 0.0 0.0 0.00 0.00 0.00 55 1020.9
20260901172340 69 0 0.0 0.0 0.00 0.00 0.00 54 1020.8
20260901171621 70 0 0.0 0.0 0.00 0.00 0.00 52 1021.0
20260901170904 71 0 0.0 0.0 0.00 0.00 0.00 50 1020.9
20260901170147 72 0 0.0 0.0 0.00 0.00 0.00 50 1020.9